Content
SEND FEEDBACK

Daily
Averages
Monthly
Summary
France

CAEN, FRANCE


Home > Europe > France
Elevation: 220 feet     Latitude: 49 11N     Longitude: 000 27W

WEATHER
 
SELECT A DAY
Number of Records: 216,261;   Date Range: 7/1/96 - 9/21/14
 
SHARE

PRINT THIS DATA

[ ← Previous Day ]
WEATHER ALMANAC - APRIL 3, 2013
[ Next Day → ]
[ °C ]   °F
Weather ElementAverageHighLow
Temperature38.6 °F41 °F (9:30 am)35 °F (8:00 am)
Dewpoint29.3 °F33.8 °F (10:30 pm)23 °F (11:00 am)
Humidity69.1 %81 % (4:30 am)49 % (11:00 am)
Barometer29.90 in29.96 in (2:00 am)29.86 in (5:00 pm)
Wind Speed10.5 mph18.4 mph (11:00 am)
Wind Gust29.9 mph (4:30 pm)
Weather ElementAverage
Visibility5.7 mi
Wind DirectionNNE (30 °)

Weather ElementTotal
Precipitation---
Heating Degree Days27 (Base 65)
Averaged from 44 records on April 3, 2013
WEATHER CONDITIONS BREAKOUT
WIND DIRECTION BREAKOUT
WEATHER BY HOUR - APRIL 3, 2013
[ °C ]   °F
Local TimeTemperatureDewpointHumidityBarometerVisibilityWind DirectionWind SpeedGust SpeedPrecipitationEventsConditions
12:30 AM37.4 °F30.2 °F75 %29.92 in6.2 miNNE (30°)8.1 mph
1:00 AM37.4 °F30.2 °F75 %29.95 in6.2 miNNE (30°)8.1 mph
1:30 AM37.4 °F30.2 °F75 %29.95 in6.2 miNNE (30°)8.1 mph
2:00 AM37.0 °F30.0 °F67 %29.96 in11.0 miNNE (30°)8.1 mphClear
2:00 AM37.4 °F30.2 °F75 %29.92 in6.2 miNNE (30°)8.1 mph
2:30 AM37.4 °F30.2 °F75 %29.92 in6.2 miNNE (30°)8.1 mph
3:00 AM37.4 °F30.2 °F75 %29.92 in6.2 miNNE (30°)8.1 mph
3:30 AM37.4 °F30.2 °F75 %29.92 in6.2 miNNE (30°)8.1 mph
4:00 AM37.4 °F30.2 °F75 %29.92 in6.2 miNNE (30°)8.1 mph
4:30 AM35.6 °F30.2 °F81 %29.92 in6.2 miNNE (30°)8.1 mph
5:00 AM35.6 °F30.2 °F81 %29.92 in6.2 miNNE (30°)6.9 mph
5:30 AM35.6 °F30.2 °F81 %29.92 in6.2 miNNE (30°)6.9 mph
6:00 AM35.6 °F30.2 °F81 %29.92 in6.2 miNNE (30°)5.8 mph
6:30 AM35.6 °F28.4 °F75 %29.92 in6.2 miNE (40°)5.8 mph
7:00 AM35.6 °F28.4 °F75 %29.92 in6.2 miNE (40°)5.8 mph
7:30 AM35.6 °F26.6 °F70 %29.92 in6.2 miNE (40°)5.8 mph
8:00 AM35.6 °F26.6 °F70 %29.92 in6.2 miNE (40°)4.6 mph
8:00 AM35.0 °F26.0 °F58 %29.94 in10.0 miNE (40°)4.6 mphScattered Clouds
8:30 AM37.4 °F26.6 °F65 %29.92 in6.2 miNE (40°)6.9 mph
9:00 AM39.2 °F28.4 °F65 %29.92 in6.2 miNE (40°)4.6 mph
9:30 AM41.0 °F30.2 °F65 %29.92 in6.2 miNNE (30°)6.9 mph
10:00 AM41.0 °F26.6 °F57 %29.92 in6.2 miNE (40°)11.5 mphPartly Cloudy
10:30 AM41.0 °F24.8 °F53 %29.92 in6.2 miNNE (30°)15.0 mph27.6 mphPartly Cloudy
11:00 AM41.0 °F23.0 °F49 %29.92 in6.2 miNE (50°)18.4 mphPartly Cloudy
12:00 PM41.0 °F28.4 °F61 %29.92 in5.6 miNNE (30°)16.1 mphMostly Cloudy
12:30 PM41.0 °F26.6 °F57 %29.92 in5.6 miNNE (20°)16.1 mphPartly Cloudy
1:00 PM41.0 °F28.4 °F61 %29.92 in5.6 miNNE (30°)13.8 mphPartly Cloudy
4:00 PM41.0 °F28.4 °F61 %29.89 in5.0 miNNE (20°)17.3 mph
4:30 PM41.0 °F28.4 °F61 %29.89 in5.6 miNNE (20°)17.3 mph29.9 mph
5:00 PM41.0 °F26.6 °F57 %29.86 in3.1 miNNE (20°)18.4 mphMist
5:30 PM41.0 °F26.6 °F57 %29.86 in5.6 miNNE (20°)17.3 mph
6:00 PM41.0 °F28.4 °F61 %29.86 in5.0 miNNE (20°)15.0 mphPartly Cloudy
6:30 PM41.0 °F28.4 °F61 %29.86 in5.0 miNNE (30°)16.1 mph
7:00 PM39.2 °F30.2 °F70 %29.86 in4.3 miNNE (20°)15.0 mph
7:30 PM39.2 °F30.2 °F70 %29.86 in4.3 miNNE (30°)12.7 mph
8:00 PM39.0 °F31.0 °F65 %29.88 in4.0 miNNE (20°)12.7 mphClear
8:00 PM39.2 °F32.0 °F75 %29.86 in4.3 miNNE (20°)12.7 mphPartly Cloudy
8:30 PM39.2 °F32.0 °F75 %29.86 in4.3 miNNE (20°)11.5 mph
9:00 PM39.2 °F32.0 °F75 %29.86 in3.7 miNNE (30°)9.2 mph
9:30 PM39.2 °F32.0 °F75 %29.86 in3.7 miNNE (30°)8.1 mph
10:00 PM39.2 °F32.0 °F75 %29.86 in3.1 miNNE (30°)9.2 mphMist
10:30 PM39.2 °F33.8 °F81 %29.86 inNNE (30°)10.4 mphPartly Cloudy
11:00 PM39.2 °F32.0 °F75 %29.86 inNNE (30°)11.5 mphMostly Cloudy
11:30 PM39.2 °F32.0 °F75 %29.86 inNNE (30°)11.5 mphMist
Hourly data recorded from LFRK, located miles away from Caen, France







STORIES FROM OUR PARTNERS